[[{"header":{"parameterUnit":"m.s-1","parameterCategory":1,"la1":30.2991,"la2":30.254,"lo1":-89.0895,"lo2":-89.0444,"dy":0.0017,"dx":0.0017,"nx":28,"ny":28,"refTime":"2025-07-25T09:00:00:Z","depth":0,"parameterNumber":2,"parameterNumberName":"U-component_of_WINDS"},"data":[0,0,0,0,0,0,0,0,0,0,0,0,0,0,0,0,0,0,0,0,0,0,0,0,0,0,0,0,0,0,0,0,0,0,0,0,0,0,0,0,0,0,0,0,0,0,0,0,0,0,0,0,0,0,0,0,0,0,-1.9574,-1.9573,0,-1.9558,-1.9558,-1.9558,-1.953,-1.9529,-1.9529,-1.9528,-1.9514,-1.9514,-1.9514,0,0,0,0,0,0,0,0,0,0,0,0,0,-1.9579,-1.9579,-1.9574,-1.9573,-1.9573,-1.9558,-1.9558,-1.9558,-1.953,-1.9529,-1.9528,-1.9528,-1.9514,-1.9514,-1.9514,0,0,0,0,0,0,0,0,0,0,0,0,0,-1.9571,-1.9579,-1.9574,-1.9557,-1.9556,-1.9558,-1.9558,-1.9558,-1.953,-1.9529,-1.9528,-1.9528,-1.9513,-1.9514,-1.9514,-1.9532,0,0,-1.9514,-1.9515,0,0,0,0,0,0,0,0,-1.9572,-1.9571,-1.956,-1.9558,-1.9557,-1.9545,-1.9555,-1.9549,-1.953,-1.954,-1.9528,-1.9527,-1.9525,-1.9524,-1.9523,-1.9531,-1.953,-1.9514,-1.9515,-1.9515,-1.9515,0,0,0,0,0,0,0,-1.9572,-1.9572,-1.9568,-1.956,-1.9558,-1.9551,-1.9549,-1.9553,-1.9537,-1.9539,-1.9537,-1.9535,-1.9524,-1.9523,-1.9522,-1.953,-1.9514,-1.9515,-1.9515,-1.9515,-1.955,-1.9551,0,0,0,0,0,0,-1.9575,-1.9572,-1.9568,-1.9567,-1.9562,-1.9552,-1.9549,-1.955,-1.9537,-1.9534,-1.9536,-1.9534,-1.9523,-1.9522,-1.9522,-1.954,-1.9515,-1.9515,-1.9515,-1.955,-1.9551,-1.9551,0,0,0,0,0,0,-1.9575,-1.9575,-1.9569,-1.9569,-1.9568,-1.9552,-1.9553,-1.955,-1.9549,-1.9535,-1.9532,-1.9538,-1.9522,-1.9522,-1.9529,-1.954,-1.9515,-1.9515,-1.9549,-1.955,-1.9551,-1.9579,0,0,0,0,0,0,-1.9576,-1.9575,-1.9582,-1.9569,-1.9568,-1.9576,-1.9554,-1.955,-1.9549,-1.9546,-1.9536,-1.9533,-1.9522,-1.9529,-1.9529,-1.9539,-1.9515,-1.9547,-1.9549,-1.9551,-1.9577,-1.9581,-1.9584,0,0,0,0,0,-1.9576,-1.9591,-1.9582,-1.9582,-1.9576,-1.9577,-1.9576,-1.9561,-1.955,-1.9556,-1.9547,-1.9534,-1.9539,-1.953,-1.953,-1.954,-1.9547,-1.9549,-1.955,-1.9575,-1.958,-1.9584,0,0,0,0,0,0,-1.9605,-1.9589,-1.9579,-1.959,-1.9585,-1.9572,-1.9579,-1.9567,-1.9565,-1.9563,-1.9546,-1.9544,-1.9553,-1.9548,-1.9538,-1.9556,-1.9541,-1.9543,-1.9559,-1.9564,-1.9567,-1.9568,-1.9515,0,0,0,0,0,-1.9613,-1.9615,-1.9601,-1.9612,-1.9609,-1.9595,-1.9595,-1.9584,-1.9578,-1.9576,-1.9567,-1.9562,-1.9562,-1.9563,-1.9563,-1.9576,-1.9573,-1.9583,-1.9587,-1.959,-1.9592,-1.9597,-1.9601,-1.9558,-1.9558,-1.9558,0,0,-1.9629,-1.962,-1.9622,-1.9617,-1.9612,-1.9614,-1.9593,-1.9597,-1.9598,-1.9577,-1.9582,-1.9576,-1.9569,-1.958,-1.9584,-1.9575,-1.9603,-1.9593,-1.9595,-1.9595,-1.96,-1.9604,-1.9607,-1.9559,-1.9559,-1.9558,0,0,-1.9658,-1.9653,-1.966,-1.9655,-1.9647,-1.9637,-1.9639,-1.9628,-1.9623,-1.9628,-1.9612,-1.9614,-1.9615,-1.961,-1.9608,-1.9635,-1.9622,-1.9636,-1.9655,-1.966,-1.9664,-1.9667,-1.9675,-1.9679,-1.9638,-1.9638,-1.9638,0,-1.9679,-1.9682,-1.9666,-1.967,-1.9668,-1.9649,-1.9656,-1.9652,-1.9645,-1.9644,-1.9635,-1.9635,-1.9629,-1.9637,-1.9644,-1.9643,-1.9644,-1.9636,-1.9665,-1.9667,-1.967,-1.9678,-1.9681,-1.9639,-1.9639,-1.9639,-1.9639,0,-1.9707,-1.9709,-1.9716,-1.9709,-1.9708,-1.9714,-1.9699,-1.97,-1.969,-1.9681,-1.9686,-1.9679,-1.9676,-1.9677,-1.9668,-1.9684,-1.9679,-1.9668,-1.9651,-1.9676,-1.9683,-1.9686,-1.9642,-1.9641,-1.9641,-1.964,0,0,-1.9754,-1.9737,-1.974,-1.9736,-1.9725,-1.9727,-1.9732,-1.9728,-1.9729,-1.9725,-1.9728,-1.9729,-1.9718,-1.9716,-1.9705,-1.9711,-1.9731,-1.9698,-1.9698,-1.9703,-1.9747,-1.9755,-1.9758,-1.9723,-1.9724,-1.9724,-1.9747,0,-1.978,-1.9787,-1.9773,-1.9784,-1.9785,-1.9766,-1.977,-1.9764,-1.9756,-1.9756,-1.9748,-1.9748,-1.9734,-1.9733,-1.9737,-1.9728,-1.974,-1.9726,-1.9725,-1.9726,-1.9726,-1.9762,-1.977,-1.9793,-1.975,-1.9751,-1.9751,0,-1.9812,-1.9808,-1.9818,-1.9806,-1.9806,-1.981,-1.9805,-1.9805,-1.9798,-1.9792,-1.9789,-1.9777,-1.9781,-1.9766,-1.9771,-1.9762,-1.9761,-1.9757,-1.9757,-1.9755,-1.9739,-1.976,-1.9799,-1.9802,-1.9755,-1.9755,-1.9755,0,-1.9843,-1.9841,-1.9846,-1.9843,-1.983,-1.9833,-1.9827,-1.9819,-1.9818,-1.9814,-1.9813,-1.981,-1.9808,-1.9806,-1.9793,-1.9784,-1.9799,-1.9784,-1.9793,-1.9794,-1.9796,-1.9796,-1.9835,-1.9798,-1.9798,-1.9798,-1.9798,0,-1.9873,-1.988,-1.986,-1.9863,-1.9869,-1.9854,-1.9861,-1.9854,-1.9847,-1.9848,-1.9832,-1.9834,-1.9818,-1.9818,-1.9808,-1.9813,-1.9812,-1.9807,-1.9804,-1.9808,-1.9808,-1.9806,-1.9803,-1.9799,-1.9799,-1.9799,-1.9799,0,-1.9909,-1.9896,-1.99,-1.9887,-1.9883,-1.9889,-1.9877,-1.988,-1.9871,-1.9873,-1.9872,-1.9858,-1.9857,-1.9844,-1.9841,-1.9834,-1.9843,-1.9838,-1.9845,-1.9842,-1.9852,-1.9851,-1.9889,-1.9893,-1.9856,-1.9857,-1.9857,0,-1.9928,-1.9932,-1.9919,-1.9918,-1.9913,-1.9913,-1.9911,-1.9896,-1.9895,-1.9887,-1.989,-1.9888,-1.9885,-1.9884,-1.9874,-1.9871,-1.9865,-1.9878,-1.9864,-1.9867,-1.9863,-1.9862,-1.9862,-1.9881,-1.9881,-1.9882,-1.9882,0,-1.9963,-1.9956,-1.9953,-1.9949,-1.9947,-1.9943,-1.9937,-1.9938,-1.9921,-1.9921,-1.9919,-1.9917,-1.9913,-1.991,-1.9906,-1.99,-1.9888,-1.9887,-1.9889,-1.9891,-1.9895,-1.9891,-1.9851,-1.9886,-1.9885,-1.9885,-1.9885,-1.9885,-1.999,-1.9992,-1.9983,-1.9981,-1.9975,-1.997,-1.9971,-1.9962,-1.996,-1.9955,-1.9947,-1.9946,-1.9939,-1.9931,-1.9926,-1.9926,-1.9919,-1.9922,-1.9922,-1.9923,-1.9924,-1.9896,-1.9925,-1.9925,-1.9925,-1.9925,-1.9925,0,-2.0022,-2.0015,-2.0013,-2.0006,-2.0004,-1.9993,-1.9987,-1.9986,-1.9985,-1.9979,-1.9976,-1.9974,-1.9971,-1.9961,-1.9957,-1.9958,-1.9953,-1.9958,-1.9957,-1.9955,-1.9931,-1.9929,-1.9962,-1.9962,-1.9962,-1.9962,-1.9962,-1.9962,-2.0039,-2.0042,-2.0034,-2.0034,-2.0028,-2.0026,-2.0023,-2.0019,-2.0013,-2.0011,-2.0009,-2.0002,-1.9994,-1.9989,-1.9986,-1.9983,-1.9982,-1.9989,-1.9984,-1.9961,-1.9957,-1.9954,-1.9952,-1.9989,-1.9989,-2.0007,-2.0008,-2.0008]},{"header":{"parameterUnit":"m.s-1","parameterCategory":1,"la1":30.2991,"la2":30.254,"lo1":-89.0895,"lo2":-89.0444,"dy":0.0017,"dx":0.0017,"nx":28,"ny":28,"refTime":"2025-07-25T09:00:00:Z","depth":0,"parameterNumber":3,"parameterNumberName":"V-component_of_WINDS"},"data":[0,0,0,0,0,0,0,0,0,0,0,0,0,0,0,0,0,0,0,0,0,0,0,0,0,0,0,0,0,0,0,0,0,0,0,0,0,0,0,0,0,0,0,0,0,0,0,0,0,0,0,0,0,0,0,0,0,0,4.6433,4.6435,0,4.655,4.6552,4.6553,4.6545,4.6543,4.6542,4.654,4.6653,4.6657,4.6662,0,0,0,0,0,0,0,0,0,0,0,0,0,4.6196,4.62,4.6433,4.6435,4.6436,4.655,4.6552,4.6553,4.6545,4.6543,4.6541,4.6539,4.6651,4.6657,4.6662,0,0,0,0,0,0,0,0,0,0,0,0,0,4.6304,4.6201,4.6433,4.6446,4.6449,4.655,4.6552,4.6554,4.6546,4.6543,4.6541,4.6538,4.665,4.6656,4.6663,4.6757,0,0,4.6684,4.6687,0,0,0,0,0,0,0,0,4.6298,4.6313,4.6443,4.6445,4.6448,4.6531,4.6509,4.6622,4.6546,4.6509,4.654,4.6537,4.6614,4.6624,4.6651,4.6762,4.6767,4.6685,4.6689,4.6692,4.6694,0,0,0,0,0,0,0,4.629,4.6308,4.6479,4.6445,4.6448,4.6444,4.6456,4.6531,4.6574,4.6512,4.6511,4.6526,4.6615,4.6644,4.6653,4.6769,4.6685,4.6691,4.6695,4.6698,4.6962,4.6964,0,0,0,0,0,0,4.6281,4.6302,4.6476,4.6483,4.6366,4.645,4.6464,4.6507,4.6573,4.6581,4.6528,4.6525,4.6634,4.6645,4.6657,4.6772,4.6692,4.6698,4.6702,4.6959,4.6962,4.6965,0,0,0,0,0,0,4.6276,4.6297,4.6471,4.6392,4.6414,4.6457,4.6505,4.651,4.654,4.6586,4.6592,4.6551,4.6632,4.6648,4.6733,4.6775,4.6701,4.6708,4.6955,4.696,4.6964,4.7,0,0,0,0,0,0,4.6269,4.6295,4.6333,4.6393,4.6419,4.6547,4.6507,4.6515,4.6553,4.655,4.6609,4.6616,4.6631,4.6722,4.6739,4.6783,4.6713,4.6952,4.6957,4.6962,4.6996,4.7005,4.7014,0,0,0,0,0,4.6261,4.6337,4.6335,4.6356,4.6467,4.6549,4.6563,4.6582,4.6556,4.6594,4.6622,4.6614,4.6768,4.6731,4.675,4.6797,4.6949,4.6956,4.6962,4.6992,4.7004,4.7014,0,0,0,0,0,0,4.6278,4.6345,4.6344,4.6442,4.6491,4.6548,4.6596,4.6594,4.6648,4.6643,4.6662,4.6675,4.676,4.6787,4.6745,4.6891,4.6855,4.6865,4.6871,4.6882,4.6891,4.6883,4.6719,0,0,0,0,0,4.6294,4.6358,4.6412,4.6493,4.6518,4.6553,4.6589,4.6599,4.6649,4.6668,4.6703,4.675,4.6808,4.6847,4.6903,4.6999,4.7011,4.704,4.7049,4.7057,4.7066,4.7118,4.7131,4.6987,4.6986,4.6986,0,0,4.6327,4.6371,4.641,4.6498,4.6537,4.6599,4.657,4.6638,4.6684,4.6678,4.6761,4.6788,4.6841,4.6931,4.6973,4.6956,4.7108,4.7065,4.7071,4.7076,4.7126,4.7139,4.7151,4.6991,4.699,4.6989,0,0,4.6419,4.6459,4.6532,4.6571,4.663,4.6653,4.667,4.6728,4.6746,4.6831,4.6827,4.6881,4.6982,4.7019,4.7052,4.7157,4.715,4.7174,4.7222,4.7273,4.7284,4.7294,4.7331,4.7344,4.7183,4.7183,4.7183,0,4.6451,4.6548,4.6568,4.6638,4.6676,4.6675,4.6747,4.6784,4.6857,4.6883,4.6863,4.699,4.7025,4.7124,4.715,4.7176,4.7195,4.7168,4.7281,4.7291,4.7301,4.7337,4.7351,4.7186,4.7185,4.7185,4.7185,0,4.6585,4.6652,4.6703,4.6777,4.6821,4.6891,4.6919,4.6961,4.6966,4.699,4.7075,4.7117,4.7182,4.7206,4.7212,4.7306,4.7294,4.7277,4.7242,4.7317,4.7351,4.7365,4.7189,4.7188,4.7188,4.7187,0,0,4.6692,4.6776,4.6795,4.6828,4.6893,4.6944,4.7013,4.7079,4.7113,4.7163,4.7221,4.7306,4.7292,4.7328,4.7337,4.7382,4.7462,4.736,4.7361,4.7377,4.7567,4.758,4.7595,4.7458,4.746,4.7462,4.7563,0,4.6791,4.6916,4.6936,4.7045,4.7107,4.7106,4.7166,4.7211,4.7234,4.7288,4.7313,4.7373,4.7349,4.7372,4.7415,4.7443,4.75,4.7436,4.7509,4.7512,4.7497,4.7613,4.7627,4.772,4.7576,4.7578,4.758,0,4.6923,4.6979,4.7095,4.7152,4.7178,4.7232,4.7293,4.7345,4.7395,4.7409,4.745,4.7454,4.7523,4.7484,4.7579,4.7534,4.7565,4.7583,4.7587,4.7595,4.7551,4.7624,4.775,4.7764,4.7601,4.7599,4.7598,0,4.6989,4.7094,4.7177,4.7205,4.7273,4.7311,4.734,4.7388,4.7426,4.7478,4.7503,4.7562,4.7594,4.7638,4.7657,4.7627,4.775,4.7713,4.7762,4.7762,4.7789,4.7787,4.7922,4.7808,4.7808,4.7808,4.7807,0,4.7098,4.7169,4.7208,4.7259,4.7338,4.7358,4.7435,4.7462,4.7505,4.7559,4.7561,4.7612,4.7634,4.7687,4.7702,4.7778,4.7792,4.7804,4.7807,4.7804,4.7803,4.7825,4.7819,4.7811,4.7811,4.781,4.7809,0,4.7186,4.7215,4.7306,4.7363,4.7378,4.7434,4.7481,4.753,4.7552,4.7622,4.7639,4.7674,4.7737,4.776,4.7836,4.7846,4.7934,4.7931,4.7918,4.7919,4.7967,4.7963,4.8121,4.8143,4.8015,4.8016,4.8017,0,4.7254,4.7309,4.7372,4.741,4.7441,4.7502,4.7541,4.7562,4.7603,4.7664,4.7704,4.7767,4.7819,4.7919,4.795,4.8008,4.8007,4.8059,4.8016,4.8011,4.8008,4.8005,4.801,4.8067,4.8068,4.8069,4.807,0,4.737,4.7382,4.744,4.7503,4.7551,4.7601,4.7649,4.7679,4.7707,4.7752,4.7818,4.7858,4.7936,4.7999,4.8058,4.8085,4.8082,4.8083,4.8098,4.8096,4.8086,4.8092,4.794,4.808,4.8079,4.8078,4.8077,4.8077,4.7451,4.7499,4.7552,4.7616,4.7655,4.77,4.7749,4.7778,4.7834,4.7901,4.7909,4.798,4.8026,4.8106,4.8136,4.819,4.8176,4.8197,4.8202,4.8207,4.8211,4.8077,4.82,4.82,4.82,4.82,4.82,0,4.7568,4.7602,4.7661,4.7729,4.7779,4.7774,4.7827,4.7868,4.7931,4.7976,4.8028,4.8102,4.8163,4.8198,4.8258,4.8294,4.8294,4.8309,4.8307,4.8313,4.822,4.8202,4.8308,4.8308,4.8308,4.8308,4.8308,4.8308,4.7635,4.7717,4.7735,4.7836,4.7868,4.7939,4.797,4.8011,4.8047,4.8132,4.8183,4.8206,4.8247,4.831,4.8364,4.8372,4.8394,4.8411,4.8418,4.8331,4.832,4.8309,4.8292,4.8415,4.8416,4.8507,4.8508,4.8508]}]]